Location: Borgo
(42.3939°N, 9.2791°E)
Time: 18:06:46
(UTC+00:00)

ISS - Visible Passes

Search period start: 22 April 2021 00:00
Search period end: 02 May 2021 00:00
Orbit: 418 x 421 km, 51.6° (Epoch: 22 April)

Date Brightness Start Highest point End Pass type
(mag) Time Alt. Az. Time Alt. Az. Time Alt. Az.
24 Apr -1.6 03:45:35 10° S 03:48:12 21° SE 03:50:49 10° E visible
25 Apr -1.1 02:59:27 10° SSE 03:01:00 13° SE 03:02:35 10° ESE visible
26 Apr -3.4 03:46:42 10° SW 03:50:02 60° SE 03:53:23 10° ENE visible
27 Apr -2.6 03:01:00 21° S 03:02:43 35° SE 03:05:51 10° ENE visible
28 Apr -1.9 02:15:30 21° SE 02:15:30 21° SE 02:18:07 10° E visible
28 Apr -3.2 03:48:46 10° WSW 03:52:04 51° NNW 03:55:23 10° NE visible
29 Apr -3.8 03:02:54 26° WSW 03:04:39 81° NNW 03:08:02 10° NE visible
30 Apr -3.6 02:17:17 61° SE 02:17:17 61° SE 02:20:37 10° ENE visible
01 May -1.5 01:31:35 22° E 01:31:35 22° E 01:33:05 10° ENE visible
01 May -2.6 03:04:32 16° W 03:06:46 35° NNW 03:09:55 10° NE visible
